QPF
0.03 0.03 0.03 0.02 0.02 0.01 0.01 0.01 0.01 0.00 0.00 0.01 0.01 0.01 0.01 0.01 0.02 0.04 0.07 0.08 0.08 0.07 0.06 0.06 0.06 0.06 0.06 0.07 0.07 0.05 0.03 0.01 0.01 0.01 0.02 0.02 0.02 0.03 0.03 0.02 0.02 0.02 0.02 0.01
0.03 0.03 0.02 0.01 0.02 0.02 0.02 0.02 0.01 0.01 0.01 0.01 0.01 0.01 0.01 0.01 0.02 0.03 0.05 0.07 0.08 0.08 0.07 0.05 0.05 0.05 0.05 0.05 0.07 0.08 0.06 0.04 0.02 0.02 0.02 0.02 0.03 0.04 0.03 0.03 0.02 0.01 0.01 0.02
0.03 0.03 0.02 0.01 0.02 0.03 0.03 0.02 0.01 0.01 0.01 0.01 0.02 0.02 0.02 0.02 0.02 0.03 0.05 0.07 0.08 0.08 0.08 0.06 0.05 0.05 0.05 0.06 0.06 0.07 0.08 0.07 0.05 0.03 0.02 0.02 0.03 0.03 0.03 0.02 0.02 0.02 0.02 0.02
0.02 0.02 0.01 0.01 0.02 0.02 0.03 0.02 0.01 0.01 0.02 0.03 0.03 0.03 0.02 0.03 0.02 0.03 0.04 0.06 0.07 0.07 0.07 0.06 0.05 0.05 0.05 0.06 0.07 0.07 0.07 0.08 0.07 0.05 0.03 0.03 0.02 0.02 0.01 0.01 0.01 0.02 0.02 0.02
0.02 0.02 0.01 0.01 0.01 0.01 0.02 0.02 0.02 0.02 0.03 0.04 0.03 0.02 0.02 0.02 0.03 0.03 0.04 0.05 0.06 0.06 0.06 0.06 0.05 0.05 0.04 0.04 0.05 0.05 0.05 0.06 0.07 0.07 0.06 0.05 0.03 0.01 0.01 0.01 0.02 0.02 0.01 0.01
0.02 0.01 0.01 0.01 0.01 0.01 0.02 0.03 0.03 0.04 0.05 0.05 0.03 0.02 0.02 0.02 0.03 0.03 0.03 0.04 0.05 0.05 0.05 0.06 0.05 0.05 0.04 0.03 0.03 0.03 0.03 0.03 0.05 0.06 0.07 0.07 0.05 0.03 0.03 0.03 0.03 0.03 0.02 0.02
0.01 0.01 0.01 0.01 0.01 0.01 0.02 0.04 0.05 0.06 0.06 0.04 0.02 0.01 0.02 0.02 0.03 0.03 0.03 0.04 0.04 0.04 0.04 0.05 0.04 0.04 0.04 0.03 0.03 0.03 0.03 0.03 0.03 0.04 0.05 0.05 0.05 0.05 0.05 0.03 0.03 0.03 0.02 0.02
0.02 0.02 0.02 0.02 0.03 0.02 0.02 0.03 0.04 0.04 0.03 0.02 0.01 0.01 0.02 0.02 0.03 0.03 0.03 0.04 0.04 0.04 0.04 0.04 0.04 0.03 0.03 0.03 0.03 0.03 0.03 0.02 0.02 0.02 0.03 0.04 0.04 0.04 0.04 0.03 0.03 0.02 0.02 0.01
0.01 0.01 0.02 0.01 0.02 0.02 0.02 0.02 0.03 0.04 0.02 0.01 0.02 0.01 0.02 0.02 0.03 0.03 0.03 0.04 0.04 0.04 0.04 0.03 0.04 0.04 0.04 0.04 0.03 0.03 0.03 0.02 0.02 0.02 0.02 0.03 0.03 0.03 0.02 0.02 0.01 0.01 0.01 0.01
0.00 0.00 0.01 0.01 0.01 0.02 0.02 0.02 0.03 0.04 0.02 0.02 0.01 0.01 0.01 0.02 0.02 0.03 0.04 0.04 0.04 0.04 0.03 0.03 0.04 0.04 0.04 0.03 0.03 0.04 0.03 0.03 0.02 0.02 0.02 0.02 0.02 0.02 0.02 0.01 0.01 0.01 0.01 0.01
0.00 0.00 0.00 0.00 0.01 0.01 0.02 0.02 0.03 0.03 0.02 0.01 0.01 0.01 0.01 0.02 0.02 0.03 0.04 0.04 0.04 0.03 0.03 0.04 0.04 0.04 0.04 0.04 0.03 0.03 0.04 0.03 0.03 0.02 0.02 0.02 0.01 0.01 0.01 0.01 0.01 0.02 0.02 0.02
0.00 0.00 0.00 0.00 0.00 0.01 0.01 0.02 0.02 0.02 0.02 0.01 0.01 0.01 0.01 0.01 0.01 0.02 0.04 0.05 0.04 0.04 0.03 0.03 0.04 0.05 0.05 0.05 0.04 0.03 0.04 0.04 0.03 0.03 0.02 0.02 0.01 0.01 0.01 0.01 0.02 0.02 0.02 0.02
0.00 0.00 0.00 0.00 0.00 0.00 0.01 0.01 0.01 0.02 0.02 0.01 0.01 0.01 0.01 0.01 0.01 0.01 0.03 0.05 0.04 0.04 0.05 0.04 0.04 0.04 0.05 0.05 0.04 0.03 0.02 0.03 0.03 0.03 0.02 0.02 0.01 0.01 0.02 0.02 0.02 0.02 0.02 0.02
0.00 0.00 0.00 0.00 0.00 0.00 0.00 0.00 0.01 0.01 0.01 0.01 0.00 0.01 0.01 0.01 0.01 0.01 0.02 0.03 0.04 0.04 0.05 0.04 0.04 0.04 0.04 0.04 0.04 0.03 0.02 0.02 0.02 0.01 0.02 0.02 0.02 0.02 0.02 0.02 0.02 0.02 0.02 0.02
0.00 0.00 0.00 0.00 0.00 0.00 0.00 0.00 0.00 0.01 0.01 0.01 0.00 0.01 0.01 0.01 0.01 0.01 0.01 0.02 0.03 0.04 0.04 0.04 0.04 0.04 0.04 0.03 0.03 0.03 0.03 0.02 0.02 0.01 0.01 0.02 0.02 0.02 0.02 0.02 0.02 0.02 0.02 0.01
0.00 0.00 0.00 0.00 0.00 0.00 0.00 0.00 0.00 0.00 0.01 0.01 0.00 0.01 0.01 0.01 0.01 0.01 0.01 0.01 0.02 0.03 0.03 0.03 0.03 0.03 0.03 0.02 0.02 0.02 0.02 0.02 0.02 0.02 0.02 0.02 0.02 0.02 0.02 0.02 0.02 0.01 0.01 0.01
0.00 0.00 0.00 0.00 0.00 0.00 0.00 0.00 0.00 0.00 0.01 0.01 0.01 0.01 0.01 0.01 0.01 0.01 0.01 0.01 0.02 0.03 0.03 0.03 0.02 0.02 0.02 0.02 0.02 0.02 0.02 0.02 0.02 0.02 0.02 0.02 0.02 0.02 0.02 0.02 0.01 0.01 0.01 0.01
0.00 0.00 0.00 0.00 0.00 0.00 0.00 0.00 0.00 0.00 0.00 0.00 0.00 0.01 0.01 0.01 0.01 0.01 0.01 0.01 0.01 0.03 0.03 0.03 0.03 0.02 0.02 0.02 0.02 0.03 0.03 0.03 0.03 0.02 0.03 0.03 0.02 0.02 0.02 0.02 0.01 0.01 0.01 0.01
0.00 0.00 0.00 0.00 0.00 0.00 0.00 0.00 0.00 0.00 0.00 0.00 0.00 0.01 0.01 0.01 0.01 0.01 0.01 0.01 0.01 0.02 0.03 0.03 0.03 0.02 0.02 0.02 0.02 0.03 0.03 0.03 0.03 0.02 0.03 0.03 0.03 0.02 0.02 0.01 0.01 0.02 0.01 0.01
0.00 0.00 0.00 0.00 0.00 0.00 0.00 0.00 0.00 0.00 0.00 0.00 0.00 0.00 0.00 0.01 0.01 0.01 0.01 0.01 0.01 0.01 0.01 0.02 0.02 0.02 0.02 0.02 0.02 0.03 0.03 0.02 0.02 0.02 0.02 0.02 0.02 0.01 0.01 0.01 0.01 0.01 0.01 0.01
0.01 0.00 0.00 0.00 0.00 0.00 0.00 0.00 0.00 0.00 0.00 0.00 0.00 0.00 0.00 0.00 0.00 0.01 0.01 0.01 0.01 0.01 0.01 0.01 0.02 0.02 0.02 0.02 0.02 0.02 0.02 0.02 0.02 0.02 0.01 0.01 0.01 0.01 0.01 0.00 0.01 0.01 0.01 0.01
0.00 0.00 0.00 0.00 0.00 0.00 0.00 0.00 0.00 0.00 0.00 0.00 0.00 0.00 0.00 0.00 0.00 0.00 0.00 0.01 0.01 0.01 0.01 0.01 0.01 0.01 0.01 0.01 0.01 0.01 0.01 0.01 0.01 0.01 0.01 0.01 0.00 0.00 0.00 0.00 0.01 0.01 0.01 0.01
0.00 0.00 0.00 0.00 0.00 0.00 0.00 0.00 0.00 0.00 0.00 0.00 0.00 0.00 0.00 0.00 0.00 0.00 0.00 0.00 0.00 0.01 0.01 0.01 0.01 0.01 0.01 0.01 0.00 0.00 0.00 0.00 0.00 0.00 0.00 0.00 0.00 0.00 0.00 0.00 0.01 0.01 0.01 0.01
0.00 0.00 0.00 0.00 0.00 0.00 0.00 0.00 0.00 0.00 0.00 0.00 0.00 0.00 0.00 0.00 0.00 0.00 0.00 0.00 0.00 0.00 0.00 0.00 0.00 0.00 0.00 0.00 0.00 0.00 0.00 0.00 0.00 0.00 0.00 0.00 0.00 0.00 0.00 0.00 0.01 0.01 0.01 0.01
0.00 0.00 0.00 0.00 0.00 0.00 0.00 0.00 0.00 0.00 0.00 0.00 0.00 0.00 0.00 0.00 0.00 0.00 0.00 0.00 0.00 0.00 0.00 0.00 0.00 0.00 0.00 0.00 0.00 0.00 0.00 0.00 0.00 0.00 0.00 0.00 0.00 0.00 0.00 0.00 0.00 0.01 0.01 0.01
0.00 0.00 0.00 0.00 0.00 0.00 0.00 0.00 0.00 0.00 0.00 0.00 0.00 0.00 0.00 0.00 0.00 0.00 0.00 0.00 0.00 0.00 0.00 0.00 0.00 0.00 0.00 0.00 0.00 0.00 0.00 0.00 0.00 0.00 0.00 0.00 0.00 0.00 0.00 0.00 0.00 0.00 0.01 0.01
MSLP
1026.60 1027.01 1027.47 1027.92 1028.30 1028.54 1028.61 1028.47 1028.12 1027.59 1026.93 1026.19 1025.42 1024.66 1023.95 1023.31 1022.72 1022.15 1021.59 1020.98 1020.30 1019.52 1018.64 1017.68 1016.66 1015.66 1014.72 1013.92 1013.34 1013.01 1012.98 1013.26 1013.81 1014.59 1015.53 1016.55 1017.58 1018.53 1019.36 1020.05 1020.59 1021.00 1021.31 1021.55
1027.31 1027.61 1027.93 1028.24 1028.49 1028.64 1028.67 1028.55 1028.27 1027.86 1027.32 1026.69 1026.01 1025.32 1024.65 1024.02 1023.43 1022.88 1022.34 1021.79 1021.18 1020.49 1019.69 1018.79 1017.81 1016.79 1015.81 1014.93 1014.24 1013.81 1013.69 1013.89 1014.39 1015.15 1016.09 1017.12 1018.17 1019.14 1019.99 1020.69 1021.23 1021.64 1021.94 1022.19
1028.07 1028.22 1028.36 1028.49 1028.59 1028.65 1028.64 1028.55 1028.36 1028.07 1027.66 1027.15 1026.57 1025.94 1025.29 1024.65 1024.06 1023.52 1023.01 1022.52 1022.00 1021.42 1020.73 1019.93 1019.01 1018.02 1017.02 1016.09 1015.31 1014.78 1014.56 1014.67 1015.10 1015.81 1016.73 1017.75 1018.79 1019.77 1020.62 1021.31 1021.85 1022.25 1022.55 1022.80
1028.93 1028.91 1028.86 1028.81 1028.76 1028.72 1028.69 1028.64 1028.54 1028.37 1028.08 1027.68 1027.17 1026.56 1025.91 1025.24 1024.62 1024.06 1023.58 1023.14 1022.71 1022.25 1021.70 1021.02 1020.21 1019.28 1018.29 1017.32 1016.48 1015.85 1015.53 1015.54 1015.89 1016.53 1017.40 1018.39 1019.41 1020.37 1021.20 1021.88 1022.40 1022.80 1023.10 1023.34
1029.88 1029.70 1029.47 1029.26 1029.09 1028.98 1028.95 1028.95 1028.95 1028.88 1028.70 1028.37 1027.88 1027.27 1026.56 1025.83 1025.14 1024.53 1024.03 1023.64 1023.30 1022.97 1022.56 1022.02 1021.33 1020.49 1019.54 1018.57 1017.68 1016.98 1016.56 1016.48 1016.73 1017.30 1018.09 1019.03 1020.01 1020.93 1021.74 1022.39 1022.90 1023.29 1023.58 1023.83
1030.87 1030.55 1030.19 1029.86 1029.61 1029.49 1029.48 1029.55 1029.64 1029.67 1029.56 1029.27 1028.77 1028.09 1027.29 1026.44 1025.64 1024.95 1024.41 1024.03 1023.77 1023.54 1023.28 1022.90 1022.35 1021.62 1020.74 1019.80 1018.90 1018.15 1017.66 1017.49 1017.65 1018.12 1018.84 1019.71 1020.63 1021.50 1022.27 1022.89 1023.38 1023.74 1024.04 1024.29
1031.81 1031.40 1030.96 1030.57 1030.31 1030.22 1030.27 1030.43 1030.62 1030.73 1030.66 1030.37 1029.81 1029.03 1028.09 1027.09 1026.15 1025.34 1024.74 1024.35 1024.13 1024.01 1023.88 1023.65 1023.25 1022.66 1021.89 1021.01 1020.13 1019.37 1018.83 1018.59 1018.67 1019.05 1019.69 1020.47 1021.32 1022.13 1022.84 1023.42 1023.87 1024.22 1024.50 1024.76
1032.61 1032.16 1031.70 1031.33 1031.11 1031.09 1031.24 1031.50 1031.77 1031.94 1031.90 1031.57 1030.94 1030.03 1028.94 1027.77 1026.66 1025.73 1025.04 1024.62 1024.43 1024.39 1024.39 1024.31 1024.07 1023.62 1022.98 1022.20 1021.38 1020.64 1020.09 1019.80 1019.81 1020.12 1020.66 1021.36 1022.12 1022.85 1023.49 1024.01 1024.42 1024.74 1025.00 1025.25
1033.20 1032.76 1032.35 1032.04 1031.92 1031.99 1032.25 1032.60 1032.95 1033.15 1033.10 1032.73 1032.00 1030.97 1029.72 1028.40 1027.15 1026.09 1025.33 1024.87 1024.70 1024.72 1024.83 1024.89 1024.81 1024.52 1024.03 1023.38 1022.65 1021.97 1021.43 1021.13 1021.09 1021.33 1021.78 1022.38 1023.04 1023.68 1024.24 1024.69 1025.04 1025.31 1025.54 1025.77
1033.57 1033.20 1032.87 1032.66 1032.64 1032.81 1033.15 1033.58 1033.96 1034.16 1034.08 1033.65 1032.83 1031.69 1030.33 1028.89 1027.54 1026.40 1025.58 1025.11 1024.95 1025.03 1025.24 1025.43 1025.49 1025.37 1025.03 1024.52 1023.92 1023.31 1022.82 1022.52 1022.46 1022.62 1022.99 1023.49 1024.04 1024.58 1025.04 1025.42 1025.70 1025.92 1026.11 1026.31
1033.79 1033.51 1033.28 1033.17 1033.23 1033.46 1033.84 1034.26 1034.62 1034.78 1034.64 1034.13 1033.25 1032.05 1030.63 1029.14 1027.75 1026.59 1025.76 1025.30 1025.18 1025.32 1025.61 1025.91 1026.10 1026.12 1025.94 1025.58 1025.10 1024.60 1024.17 1023.89 1023.81 1023.92 1024.20 1024.60 1025.04 1025.47 1025.84 1026.13 1026.35 1026.51 1026.66 1026.82
1033.96 1033.78 1033.63 1033.59 1033.68 1033.91 1034.24 1034.59 1034.84 1034.90 1034.67 1034.09 1033.16 1031.94 1030.53 1029.08 1027.73 1026.62 1025.84 1025.43 1025.36 1025.55 1025.91 1026.30 1026.60 1026.75 1026.71 1026.48 1026.13 1025.74 1025.38 1025.13 1025.03 1025.10 1025.30 1025.60 1025.95 1026.28 1026.56 1026.78 1026.93 1027.05 1027.16 1027.28
1034.20 1034.11 1034.02 1033.99 1034.03 1034.16 1034.35 1034.52 1034.60 1034.49 1034.13 1033.48 1032.53 1031.34 1030.02 1028.67 1027.45 1026.46 1025.78 1025.45 1025.45 1025.70 1026.11 1026.56 1026.94 1027.18 1027.25 1027.15 1026.92 1026.62 1026.34 1026.12 1026.02 1026.05 1026.20 1026.42 1026.67 1026.92 1027.14 1027.30 1027.41 1027.50 1027.58 1027.68
1034.60 1034.57 1034.49 1034.39 1034.31 1034.24 1034.19 1034.10 1033.93 1033.61 1033.10 1032.37 1031.43 1030.32 1029.13 1027.97 1026.93 1026.11 1025.58 1025.36 1025.43 1025.73 1026.17 1026.64 1027.07 1027.38 1027.53 1027.52 1027.40 1027.19 1026.98 1026.81 1026.73 1026.73 1026.83 1026.99 1027.19 1027.38 1027.55 1027.68 1027.78 1027.86 1027.94 1028.02
1035.19 1035.17 1035.04 1034.81 1034.52 1034.18 1033.81 1033.40 1032.93 1032.37 1031.70 1030.90 1029.99 1029.01 1028.00 1027.05 1026.24 1025.63 1025.27 1025.16 1025.30 1025.62 1026.06 1026.54 1026.98 1027.32 1027.53 1027.60 1027.56 1027.45 1027.32 1027.20 1027.14 1027.15 1027.22 1027.35 1027.50 1027.67 1027.82 1027.95 1028.06 1028.15 1028.24 1028.32
1035.92 1035.88 1035.63 1035.21 1034.66 1034.00 1033.28 1032.51 1031.73 1030.92 1030.10 1029.26 1028.41 1027.57 1026.77 1026.07 1025.50 1025.10 1024.89 1024.89 1025.08 1025.40 1025.82 1026.27 1026.69 1027.04 1027.28 1027.42 1027.47 1027.45 1027.39 1027.34 1027.32 1027.35 1027.42 1027.54 1027.68 1027.84 1028.00 1028.15 1028.28 1028.40 1028.50 1028.59
1036.70 1036.57 1036.17 1035.52 1034.68 1033.68 1032.61 1031.51 1030.44 1029.43 1028.49 1027.63 1026.86 1026.19 1025.61 1025.14 1024.80 1024.60 1024.53 1024.61 1024.81 1025.12 1025.49 1025.89 1026.27 1026.61 1026.89 1027.08 1027.21 1027.28 1027.32 1027.34 1027.38 1027.44 1027.53 1027.65 1027.80 1027.96 1028.13 1028.31 1028.47 1028.63 1028.75 1028.85
1037.36 1037.11 1036.52 1035.64 1034.51 1033.22 1031.84 1030.47 1029.18 1028.01 1027.01 1026.19 1025.53 1025.02 1024.66 1024.41 1024.26 1024.21 1024.25 1024.37 1024.57 1024.82 1025.13 1025.47 1025.81 1026.14 1026.43 1026.69 1026.90 1027.07 1027.21 1027.32 1027.42 1027.52 1027.64 1027.77 1027.92 1028.09 1028.28 1028.47 1028.66 1028.83 1028.98 1029.08
1037.76 1037.36 1036.58 1035.48 1034.12 1032.59 1030.99 1029.44 1028.01 1026.79 1025.79 1025.03 1024.51 1024.17 1023.99 1023.93 1023.93 1023.99 1024.09 1024.21 1024.37 1024.57 1024.80 1025.07 1025.37 1025.70 1026.03 1026.35 1026.65 1026.92 1027.15 1027.34 1027.51 1027.66 1027.80 1027.94 1028.09 1028.26 1028.44 1028.63 1028.83 1029.01 1029.16 1029.26
1037.81 1037.23 1036.28 1035.01 1033.48 1031.80 1030.08 1028.45 1026.99 1025.78 1024.86 1024.21 1023.83 1023.65 1023.63 1023.70 1023.81 1023.93 1024.04 1024.15 1024.25 1024.37 1024.53 1024.75 1025.03 1025.35 1025.72 1026.11 1026.50 1026.86 1027.19 1027.46 1027.68 1027.86 1028.02 1028.15 1028.29 1028.44 1028.60 1028.78 1028.97 1029.14 1029.28 1029.37
1037.45 1036.71 1035.61 1034.22 1032.60 1030.87 1029.14 1027.53 1026.14 1025.03 1024.22 1023.72 1023.47 1023.43 1023.52 1023.68 1023.85 1023.99 1024.08 1024.14 1024.18 1024.24 1024.34 1024.52 1024.78 1025.13 1025.54 1025.99 1026.46 1026.90 1027.30 1027.64 1027.90 1028.10 1028.26 1028.38 1028.49 1028.61 1028.75 1028.90 1029.06 1029.21 1029.33 1029.41
1036.68 1035.80 1034.61 1033.16 1031.54 1029.85 1028.21 1026.72 1025.47 1024.51 1023.85 1023.49 1023.37 1023.43 1023.60 1023.80 1023.98 1024.10 1024.15 1024.16 1024.14 1024.15 1024.21 1024.37 1024.63 1025.00 1025.45 1025.96 1026.49 1026.99 1027.44 1027.82 1028.11 1028.32 1028.47 1028.57 1028.66 1028.75 1028.86 1028.98 1029.12 1029.25 1029.36 1029.43
1035.57 1034.59 1033.35 1031.92 1030.38 1028.81 1027.34 1026.03 1024.97 1024.19 1023.70 1023.47 1023.45 1023.58 1023.77 1023.97 1024.12 1024.20 1024.20 1024.16 1024.10 1024.07 1024.12 1024.27 1024.54 1024.93 1025.42 1025.97 1026.53 1027.07 1027.55 1027.94 1028.24 1028.46 1028.60 1028.69 1028.77 1028.84 1028.94 1029.05 1029.18 1029.31 1029.42 1029.50
1034.19 1033.15 1031.92 1030.57 1029.18 1027.81 1026.55 1025.47 1024.63 1024.05 1023.71 1023.59 1023.63 1023.78 1023.96 1024.12 1024.22 1024.24 1024.20 1024.11 1024.03 1023.99 1024.03 1024.20 1024.49 1024.90 1025.41 1025.97 1026.55 1027.10 1027.58 1027.97 1028.27 1028.48 1028.63 1028.73 1028.82 1028.91 1029.02 1029.16 1029.31 1029.46 1029.60 1029.71
1032.61 1031.56 1030.40 1029.19 1027.99 1026.87 1025.86 1025.04 1024.43 1024.03 1023.82 1023.78 1023.85 1023.98 1024.12 1024.21 1024.25 1024.21 1024.13 1024.02 1023.93 1023.90 1023.97 1024.15 1024.47 1024.89 1025.40 1025.96 1026.52 1027.05 1027.51 1027.89 1028.19 1028.41 1028.58 1028.72 1028.86 1029.00 1029.17 1029.36 1029.56 1029.77 1029.95 1030.11
1030.92 1029.89 1028.85 1027.83 1026.86 1026.00 1025.28 1024.71 1024.32 1024.08 1023.99 1023.99 1024.06 1024.15 1024.22 1024.24 1024.21 1024.13 1024.02 1023.91 1023.83 1023.83 1023.94 1024.16 1024.49 1024.91 1025.41 1025.94 1026.46 1026.96 1027.39 1027.75 1028.05 1028.30 1028.52 1028.72 1028.93 1029.17 1029.43 1029.71 1030.00 1030.28 1030.53 1030.75
Thickness
5541 5534 5527 5529 5533 5536 5532 5528 5526 5528 5531 5533 5533 5534 5539 5541 5540 5540 5541 5542 5544 5546 5548 5548 5550 5551 5551 5551 5552 5552 5552 5550 5550 5549 5548 5547 5544 5543 5541 5539 5538 5536 5536 5535
5531 5525 5526 5529 5532 5531 5528 5524 5520 5521 5525 5527 5525 5527 5534 5537 5537 5537 5537 5537 5539 5540 5540 5541 5542 5542 5543 5544 5544 5544 5543 5542 5541 5540 5539 5537 5535 5533 5530 5529 5527 5526 5524 5524
5525 5521 5525 5527 5525 5526 5521 5519 5517 5516 5516 5520 5520 5524 5530 5535 5535 5534 5533 5533 5534 5535 5534 5534 5535 5535 5535 5535 5535 5535 5534 5534 5532 5531 5529 5527 5525 5523 5520 5518 5517 5515 5514 5513
5515 5516 5521 5522 5518 5520 5518 5517 5517 5515 5512 5510 5517 5515 5525 5527 5529 5530 5528 5526 5527 5529 5529 5529 5529 5528 5528 5527 5527 5526 5525 5524 5523 5522 5521 5519 5516 5513 5511 5509 5507 5505 5503 5502
5508 5509 5513 5515 5513 5513 5512 5515 5514 5513 5510 5507 5508 5508 5517 5522 5525 5527 5526 5524 5524 5524 5524 5524 5523 5522 5521 5520 5519 5518 5516 5515 5513 5513 5512 5510 5507 5504 5501 5499 5497 5495 5493 5491
5505 5507 5507 5508 5510 5511 5511 5511 5510 5503 5501 5502 5508 5503 5512 5513 5523 5527 5526 5523 5520 5520 5519 5518 5517 5515 5514 5512 5511 5510 5507 5505 5504 5504 5503 5501 5498 5495 5492 5489 5486 5485 5482 5481
5505 5505 5503 5504 5509 5509 5508 5503 5494 5496 5485 5494 5505 5502 5509 5521 5523 5525 5524 5520 5517 5516 5513 5511 5510 5508 5507 5505 5503 5501 5500 5498 5497 5495 5494 5492 5490 5486 5484 5480 5477 5475 5472 5471
5501 5501 5499 5499 5502 5502 5504 5502 5496 5498 5495 5492 5498 5500 5513 5520 5520 5521 5520 5517 5514 5511 5508 5507 5505 5503 5500 5498 5497 5494 5493 5492 5490 5488 5486 5483 5481 5478 5475 5472 5469 5466 5464 5462
5496 5497 5496 5497 5498 5501 5501 5495 5497 5484 5477 5483 5492 5498 5510 5517 5517 5516 5514 5512 5509 5507 5505 5502 5500 5497 5495 5493 5491 5489 5488 5485 5483 5480 5477 5475 5472 5469 5466 5463 5460 5457 5455 5452
5490 5486 5493 5494 5498 5497 5497 5493 5483 5481 5486 5491 5495 5499 5507 5515 5512 5511 5508 5507 5506 5503 5500 5497 5494 5492 5490 5488 5486 5484 5481 5478 5475 5473 5470 5467 5463 5460 5457 5454 5451 5449 5446 5443
5489 5485 5487 5489 5485 5488 5489 5489 5483 5475 5477 5487 5493 5507 5513 5515 5514 5509 5507 5504 5501 5499 5495 5492 5488 5486 5484 5482 5480 5477 5474 5471 5467 5465 5462 5458 5456 5452 5449 5446 5443 5440 5438 5435
5485 5479 5475 5482 5483 5481 5483 5484 5480 5483 5476 5477 5487 5502 5515 5512 5511 5508 5505 5502 5498 5495 5491 5487 5483 5480 5478 5475 5473 5470 5467 5464 5460 5457 5454 5451 5448 5445 5442 5439 5435 5432 5429 5426
5485 5478 5476 5487 5482 5476 5477 5478 5475 5471 5466 5463 5475 5502 5510 5506 5507 5504 5501 5497 5494 5491 5487 5482 5478 5475 5472 5469 5466 5464 5460 5457 5454 5450 5447 5443 5440 5438 5435 5431 5427 5424 5420 5418
5482 5471 5479 5493 5491 5476 5473 5474 5473 5472 5466 5463 5475 5496 5506 5505 5502 5500 5496 5493 5489 5486 5483 5477 5473 5470 5468 5465 5461 5458 5454 5451 5447 5443 5440 5436 5434 5431 5428 5423 5419 5415 5412 5408
5475 5467 5462 5465 5466 5466 5470 5473 5471 5471 5474 5476 5489 5489 5507 5505 5501 5497 5493 5489 5485 5483 5479 5476 5471 5467 5464 5460 5456 5453 5450 5446 5442 5437 5434 5430 5427 5424 5420 5416 5411 5407 5403 5400
5462 5458 5455 5458 5462 5461 5464 5469 5468 5471 5473 5473 5478 5487 5506 5501 5496 5494 5491 5487 5484 5482 5478 5474 5470 5466 5461 5458 5454 5450 5446 5442 5437 5432 5428 5425 5421 5417 5413 5409 5405 5400 5396 5392
5454 5450 5454 5457 5448 5460 5467 5480 5474 5474 5477 5480 5486 5502 5504 5500 5496 5493 5490 5487 5485 5482 5478 5473 5469 5465 5461 5456 5452 5447 5442 5437 5431 5427 5423 5419 5415 5411 5407 5403 5398 5393 5388 5384
5451 5444 5433 5434 5450 5479 5504 5494 5485 5484 5486 5485 5493 5499 5499 5499 5494 5490 5488 5486 5483 5481 5476 5472 5467 5463 5458 5453 5448 5443 5437 5432 5427 5422 5417 5413 5409 5405 5401 5396 5391 5386 5381 5376
5451 5446 5427 5427 5444 5461 5492 5492 5483 5484 5493 5494 5493 5497 5495 5490 5488 5488 5489 5486 5484 5481 5476 5471 5465 5460 5454 5449 5444 5438 5432 5427 5422 5417 5413 5408 5404 5399 5395 5390 5385 5380 5375 5370
5442 5439 5426 5421 5452 5473 5512 5498 5487 5490 5498 5506 5496 5495 5490 5485 5484 5492 5492 5485 5482 5477 5471 5466 5459 5454 5449 5444 5439 5433 5427 5422 5418 5413 5408 5403 5399 5394 5390 5385 5379 5374 5369 5364
5431 5425 5422 5421 5435 5464 5494 5486 5486 5495 5514 5512 5498 5494 5488 5485 5493 5490 5485 5481 5476 5472 5466 5461 5455 5449 5445 5440 5434 5428 5423 5418 5414 5409 5403 5398 5393 5389 5384 5379 5374 5369 5364 5359
5442 5429 5421 5417 5437 5479 5490 5480 5488 5507 5508 5504 5498 5493 5487 5485 5483 5479 5476 5473 5469 5464 5460 5455 5450 5445 5440 5435 5430 5424 5420 5416 5410 5404 5399 5394 5389 5383 5379 5374 5369 5363 5358 5353
5452 5463 5457 5463 5489 5501 5487 5491 5496 5495 5496 5496 5493 5490 5485 5480 5477 5474 5470 5466 5462 5458 5454 5450 5445 5440 5434 5430 5426 5421 5417 5411 5405 5399 5394 5389 5384 5378 5373 5368 5363 5357 5352 5347
5452 5454 5456 5458 5480 5486 5484 5485 5488 5487 5488 5490 5487 5483 5480 5476 5474 5469 5465 5461 5457 5453 5448 5443 5438 5434 5430 5425 5421 5417 5412 5405 5399 5394 5389 5384 5378 5373 5367 5362 5358 5353 5348 5343
5462 5448 5450 5456 5474 5477 5484 5485 5488 5485 5481 5479 5478 5475 5473 5471 5468 5465 5461 5457 5453 5449 5443 5438 5434 5430 5426 5421 5415 5411 5405 5399 5394 5389 5384 5378 5373 5368 5362 5357 5353 5348 5345 5340
5457 5457 5461 5481 5488 5485 5496 5492 5486 5480 5478 5476 5473 5470 5467 5465 5463 5460 5456 5453 5448 5443 5438 5432 5428 5425 5420 5415 5410 5404 5399 5393 5388 5383 5378 5373 5368 5363 5357 5352 5347 5343 5339 5335